Location: Cudham
(51.3000°N, 0.0667°E)
Time: 00:42:08
(UTC+00:00)

Cosmos 1605 Rocket - Pass Details

Date: 19 May 2025
Orbit: 944 x 1005 km, 82.9° (Epoch: 18 June)

Event Time Altitude Azimuth Distance (km) Brightness Sun altitude
Rises 23:23:08 0° 349° (N) 3,732 8.8 -18.3°
Reaches altitude 10° 23:25:42 10° 348° (NNW) 2,772 7.7 -18.4°
Maximum altitude 23:32:04 81° 263° (W) 1,002 4.0 -18.5°
Enters shadow 23:35:18 31° 180° (S) 1,654 4.6 -18.6°
